Theta_e
323 319 319 315 300 301 296 297 301 302 304 311 313 318 315 316 312 309 322 326 322 326 342 344 344 347 346 346 346 345 344 344 345 347 346 346 345 345 345 345 346 345 341 340 339 337 335 335 336
319 317 315 308 296 292 294 299 299 303 306 315 316 318 316 310 314 316 318 319 324 330 341 343 341 344 346 345 345 345 344 343 343 344 346 346 346 344 344 344 346 345 340 341 338 336 335 336 334
315 311 308 301 297 293 294 299 301 305 309 314 315 318 310 305 312 311 316 317 325 337 342 342 340 343 346 345 344 345 344 344 342 341 343 345 345 344 344 344 345 343 340 340 337 335 334 334 333
316 312 307 299 294 296 298 300 303 306 309 312 314 307 308 309 308 311 315 320 326 325 335 338 337 342 344 345 345 345 344 344 344 343 342 342 344 345 344 344 345 343 340 338 336 335 333 331 331
312 308 299 296 295 299 301 301 303 304 306 308 312 308 305 308 311 313 315 319 324 325 331 333 333 334 339 343 343 343 344 344 342 343 343 344 345 346 344 344 343 343 341 337 336 334 333 331 330
306 305 296 293 295 298 300 301 304 304 305 306 307 308 308 313 310 311 316 317 322 325 326 330 325 327 328 329 336 339 341 343 343 343 341 341 341 342 343 342 341 342 341 337 336 334 333 332 330
303 301 293 294 295 296 298 301 302 303 302 303 306 304 308 310 311 313 316 320 320 322 325 325 326 325 325 325 327 331 337 340 342 342 340 340 340 341 340 339 341 341 341 339 337 336 335 332 329
305 303 294 295 295 294 299 300 301 302 301 306 305 300 302 306 309 313 318 318 317 316 316 322 325 325 325 326 325 328 330 334 337 337 335 334 336 336 336 334 337 340 340 338 337 336 336 332 329
304 298 294 293 294 295 297 298 302 304 302 302 302 300 303 306 310 312 314 315 314 312 313 314 315 324 323 324 324 326 329 329 330 332 329 329 336 340 337 332 334 338 337 337 335 336 334 331 329
301 297 292 295 295 294 296 298 299 299 299 298 299 302 303 305 307 307 307 307 307 307 309 311 313 315 321 323 324 327 328 333 335 335 334 332 334 338 337 331 329 332 332 334 334 334 331 326 325
296 295 294 295 298 297 297 298 299 297 296 298 297 298 299 301 303 304 305 304 302 305 307 308 309 314 315 321 323 324 328 332 335 334 333 333 335 339 339 337 333 333 327 332 330 331 330 327 325
293 294 295 296 297 297 296 298 296 297 298 300 300 298 299 298 299 300 301 303 301 301 303 305 307 310 314 315 323 323 323 330 331 334 333 332 335 338 337 333 332 332 332 328 328 326 329 326 325
295 294 295 296 297 296 297 295 295 296 299 298 297 297 297 298 298 300 300 301 299 299 300 302 305 307 309 313 317 324 323 329 331 332 334 332 334 335 335 333 332 332 331 328 327 324 325 325 324
296 295 295 296 295 295 294 294 294 295 298 297 295 296 296 296 297 298 299 299 299 298 300 301 302 305 307 310 312 316 323 329 330 331 333 332 333 333 333 332 331 331 331 330 326 323 323 322 321
295 292 293 294 295 293 295 291 292 295 296 295 295 295 296 296 297 296 297 298 299 299 299 299 300 303 304 307 311 314 319 327 328 329 333 333 332 332 333 332 330 331 332 328 326 323 322 321 322
292 291 289 292 294 294 294 289 293 295 295 294 295 295 295 296 296 296 297 298 299 298 298 298 299 300 302 302 308 312 316 324 327 328 333 333 331 333 331 332 332 333 331 327 322 323 321 322 322
290 286 287 289 292 292 292 290 293 295 294 294 295 295 295 295 296 296 297 297 297 298 298 298 298 299 300 302 304 310 314 318 324 329 331 331 330 330 331 329 331 332 330 327 324 322 322 321 321
285 286 287 287 290 291 290 291 294 295 294 295 295 295 295 295 295 296 296 297 297 298 298 299 299 300 300 302 302 307 312 311 316 320 322 329 329 329 329 330 330 328 328 327 325 322 322 321 321
288 287 286 288 290 289 289 290 293 295 294 294 295 295 295 295 296 296 296 296 296 297 297 297 297 298 299 297 297 299 301 305 312 313 314 319 327 328 328 329 327 328 327 327 327 324 323 322 323
288 286 287 289 289 289 290 289 290 292 293 294 294 295 295 295 296 295 295 295 295 295 296 296 296 297 298 295 296 298 299 302 309 308 310 313 316 326 327 326 328 328 327 327 326 324 322 323 323
287 285 286 285 289 289 288 288 289 291 292 294 295 296 295 295 295 295 295 294 295 294 294 294 295 296 297 296 296 297 301 304 302 304 307 310 313 315 326 325 327 325 326 325 325 326 324 321 322
284 288 287 286 287 284 287 283 288 289 291 292 294 295 295 295 295 294 294 294 293 293 295 295 294 295 295 295 295 294 295 295 298 301 305 309 310 312 315 326 324 323 325 326 327 326 325 323 317
286 288 287 287 286 285 285 284 289 288 289 291 293 294 295 295 294 294 294 293 293 293 293 294 294 295 294 295 295 295 294 296 298 299 301 303 306 309 309 318 325 326 327 326 325 323 321 320 320
288 287 285 284 285 284 282 282 286 288 289 291 293 294 294 295 294 294 294 293 293 293 293 294 294 294 294 294 294 295 295 295 297 297 298 299 302 305 307 309 321 325 326 325 325 325 323 322 322
286 282 284 284 285 284 281 280 286 290 291 291 292 294 295 295 295 294 293 293 292 291 292 292 292 292 293 293 293 295 295 296 297 297 297 297 299 301 304 307 311 316 322 325 325 323 321 321 319
284 282 281 281 280 280 279 280 286 291 292 292 293 294 294 294 294 293 293 292 291 290 291 291 291 291 292 292 293 294 295 295 297 297 298 297 299 301 303 304 309 311 313 321 321 320 318 318 320
283 282 283 277 272 277 280 283 287 289 292 292 292 292 293 293 293 293 292 292 291 290 290 290 290 291 292 292 293 294 294 295 295 297 299 300 299 300 301 303 307 311 311 314 320 319 318 318 318
285 285 279 281 280 281 280 277 283 286 289 291 291 292 292 293 293 293 293 292 291 290 289 290 291 291 291 291 292 293 294 294 295 296 297 298 300 300 301 303 306 308 312 313 314 318 318 318 317
283 283 281 281 278 280 278 284 288 288 290 291 292 292 292 292 292 293 293 292 290 289 289 289 290 290 291 291 292 292 292 293 294 295 296 297 299 300 302 304 305 307 309 314 314 315 314 311 310
284 283 282 279 279 277 277 282 287 289 290 289 291 292 290 290 290 291 291 291 291 289 288 288 289 289 290 291 292 291 291 292 292 293 294 296 297 299 300 302 304 305 305 308 309 307 306 306 303
Wind_Speed
7 2 1 2 4 3 3 3 4 7 3 9 8 4 10 11 5 5 14 13 24 19 12 11 12 13 12 11 10 11 9 10 10 12 13 13 13 14 14 14 15 15 14 15 16 14 15 15 15
4 1 1 2 3 5 4 3 5 9 11 13 4 2 7 5 5 9 11 25 25 18 15 9 11 12 12 11 11 11 11 10 10 10 11 13 12 13 15 15 14 15 15 16 15 15 15 15 15
2 3 2 2 1 0 3 5 7 10 3 11 2 11 5 8 9 10 12 21 22 13 11 6 9 13 13 11 11 10 10 10 11 11 10 11 12 11 13 15 14 15 15 15 15 15 15 14 15
2 3 3 1 6 5 4 6 8 9 3 9 5 6 6 8 10 12 19 18 13 15 9 11 16 11 13 13 13 13 11 11 11 12 12 11 11 11 12 14 17 17 15 15 16 16 15 13 13
0 2 2 4 5 5 5 5 4 7 4 9 10 4 8 4 13 16 17 16 14 13 13 11 16 20 5 11 11 11 10 10 10 8 9 10 12 11 12 13 16 19 17 16 17 17 15 13 12
2 2 2 2 4 3 2 6 2 6 6 8 5 6 4 6 18 16 15 15 13 10 11 11 16 20 19 17 4 6 8 9 10 10 8 6 7 10 13 15 17 19 18 17 16 16 14 13 11
3 1 3 3 5 4 3 4 4 5 7 7 7 5 3 12 18 16 14 13 12 13 9 8 10 8 9 13 17 8 9 9 9 8 7 5 4 11 13 15 16 18 17 16 15 14 13 13 12
2 2 3 3 1 3 6 3 3 6 5 3 7 5 4 16 17 13 11 12 12 13 14 14 7 6 4 3 4 8 3 10 10 9 6 5 3 8 12 12 14 16 17 15 13 13 14 13 13
2 2 4 3 0 3 5 5 3 2 1 4 4 5 9 14 13 11 11 13 13 13 13 13 14 11 6 5 7 7 4 3 11 8 6 6 6 10 13 12 12 14 16 15 13 12 13 12 10
4 2 3 3 2 2 3 3 5 4 1 2 1 8 12 12 12 12 13 12 14 15 15 12 13 12 12 4 7 7 6 5 8 8 9 7 7 8 11 11 14 9 12 14 11 10 9 10 8
5 4 5 4 3 1 2 1 2 5 1 4 8 12 12 12 10 11 11 11 12 14 11 13 13 13 11 10 3 3 3 4 6 10 9 8 7 6 7 8 6 7 10 8 10 8 9 7 7
6 4 2 2 3 1 1 0 2 3 4 4 6 7 8 10 11 11 12 12 13 13 14 14 14 13 12 7 6 4 5 7 6 8 12 8 6 7 8 6 8 8 6 6 4 4 7 8 7
10 4 4 3 3 4 1 1 2 1 1 2 4 5 7 8 10 9 9 11 11 13 12 13 13 13 13 10 8 6 7 9 9 8 11 7 8 8 8 8 9 8 8 7 7 6 7 8 7
5 5 5 5 2 3 4 1 2 3 0 4 6 7 7 7 7 9 10 11 12 11 14 13 14 13 13 10 10 9 7 7 9 7 9 11 9 8 9 8 8 9 8 9 8 7 7 6 5
5 2 2 6 6 1 6 3 2 2 2 5 6 6 6 5 5 7 9 9 11 11 12 13 12 12 13 15 10 7 9 6 8 8 13 13 10 10 11 9 7 7 10 11 9 8 7 4 5
1 3 2 3 6 1 6 2 1 3 4 6 6 5 5 5 5 4 6 9 11 10 12 11 11 11 13 10 10 8 8 6 1 7 9 12 12 12 10 9 11 10 9 9 7 9 7 7 6
2 2 1 2 1 4 3 4 3 4 5 7 6 6 5 5 3 3 5 6 8 9 10 11 10 12 12 11 8 8 9 6 4 4 6 9 9 9 9 6 7 9 9 9 8 7 8 7 6
3 5 3 3 2 4 6 10 6 5 8 9 8 7 5 5 4 4 5 5 8 9 10 10 10 12 13 9 7 6 5 7 7 7 4 4 4 8 6 8 9 9 8 8 8 9 7 6 6
2 7 8 2 2 8 4 12 12 7 7 9 9 8 6 5 2 3 4 5 7 8 10 11 11 12 8 8 7 4 4 7 6 6 7 6 4 8 8 8 8 8 10 10 11 7 9 6 4
4 7 6 5 2 6 6 13 3 2 3 6 7 8 7 6 5 3 5 6 7 9 10 11 10 11 8 6 4 3 4 4 4 5 6 7 6 4 7 7 9 11 8 10 10 9 5 5 5
1 4 8 7 10 3 12 3 1 2 4 5 7 8 7 7 7 6 6 6 7 8 10 9 9 9 9 8 5 4 3 3 4 5 6 6 7 6 7 9 9 9 7 8 10 11 11 7 6
1 3 7 9 8 3 9 4 1 3 6 2 3 6 6 5 5 5 6 7 7 8 8 9 8 8 8 9 6 6 3 4 3 4 6 5 7 7 9 9 9 7 5 8 8 8 7 5 5
3 4 5 7 6 4 6 3 2 3 3 5 4 6 5 3 5 6 5 6 6 6 8 8 7 7 7 8 7 5 4 3 3 4 6 6 7 8 9 7 11 10 8 8 8 7 6 4 4
2 2 3 3 4 1 3 4 2 3 5 6 4 5 5 4 4 5 5 5 6 6 7 7 8 8 7 6 7 6 5 5 4 4 4 4 4 5 8 9 3 8 8 8 7 7 8 7 6
2 1 1 1 1 2 1 4 6 6 6 6 7 7 6 5 6 5 6 7 7 8 8 6 7 7 8 8 7 7 6 5 5 5 3 4 4 3 6 7 5 3 3 7 6 7 6 7 7
4 2 0 3 2 3 1 4 1 2 5 10 8 7 5 3 4 5 5 6 7 8 9 9 8 8 9 8 7 6 7 4 3 4 5 2 2 3 5 6 6 4 3 4 6 4 4 5 9
3 1 2 5 1 2 3 5 9 2 4 3 4 3 3 2 3 2 2 3 5 6 8 8 8 7 7 6 6 5 5 6 5 5 5 4 3 4 5 5 6 5 2 3 4 5 5 6 6
1 4 2 2 2 2 2 5 4 2 4 4 3 4 3 4 2 0 1 1 1 4 5 7 7 7 7 7 7 5 5 5 5 4 4 5 5 4 5 5 5 3 3 1 2 4 3 4 2
4 3 2 1 3 0 3 3 7 6 5 7 5 5 6 5 5 4 2 4 2 2 4 4 6 7 7 6 6 6 6 6 5 5 5 4 4 5 4 5 4 3 2 2 3 2 2 4 3
2 2 3 2 3 1 1 7 4 7 5 4 9 8 8 6 5 4 4 4 3 1 3 4 4 5 6 7 7 8 8 7 6 5 6 5 4 4 4 5 4 2 1 1 5 5 5 5 5
Wind_Direction
322 329 233 185 195 246 129 80 326 346 16 358 314 353 82 36 357 21 320 2 334 322 265 192 183 167 160 159 154 150 154 156 154 148 150 151 156 156 151 148 140 131 131 132 123 122 117 118 114
337 268 201 116 224 207 121 9 360 349 338 328 120 198 40 69 34 330 346 334 326 311 282 212 186 171 155 156 155 159 160 166 165 166 161 161 162 164 157 153 141 133 136 131 125 126 122 119 113
260 297 242 119 106 80 109 20 343 340 13 2 37 37 27 350 344 335 326 321 318 322 294 259 209 174 156 160 163 168 166 168 168 170 177 174 172 174 161 156 143 133 136 133 129 129 126 122 118
282 175 135 263 97 71 48 10 351 352 38 30 16 74 83 67 331 328 327 329 342 354 12 22 356 192 171 168 177 175 174 176 172 172 176 188 187 180 174 169 146 134 138 136 136 131 129 127 126
42 243 140 100 97 122 63 20 352 10 30 12 346 44 138 21 357 344 342 342 354 356 4 47 55 45 329 181 180 176 171 163 174 173 167 187 197 192 178 172 150 139 145 143 143 138 131 129 127
137 281 181 183 131 120 85 10 354 21 16 10 29 336 131 2 3 347 348 351 349 358 5 34 52 54 31 15 343 214 195 181 175 172 177 180 202 195 180 171 161 149 150 149 146 141 137 137 130
64 26 78 130 136 147 35 357 28 357 18 33 337 315 332 0 350 341 352 357 6 4 2 8 19 42 44 17 359 27 261 209 181 177 182 179 211 192 183 175 168 152 151 152 146 147 145 145 132
57 74 115 51 40 87 17 7 352 6 55 350 345 10 340 339 332 331 356 3 9 5 3 355 359 5 52 329 351 330 31 274 204 179 180 181 199 173 172 171 170 153 149 141 142 143 148 149 137
308 98 84 87 111 53 11 338 61 22 29 49 46 9 323 326 332 343 359 6 5 1 359 356 350 350 356 329 358 348 337 249 251 184 173 186 204 176 165 169 151 149 145 143 148 147 156 139 127
11 58 84 50 23 348 347 344 345 297 12 79 353 359 349 343 348 353 360 360 359 353 350 355 345 346 336 323 319 337 313 275 223 198 193 212 203 184 177 152 137 157 135 139 146 162 144 163 149
29 70 129 76 20 294 359 340 18 311 233 31 336 338 346 346 352 355 358 358 351 341 346 350 345 336 338 330 305 353 296 260 209 206 202 199 193 167 165 154 147 148 157 162 155 158 178 175 159
103 72 120 75 32 128 42 11 285 322 39 353 333 328 329 347 354 357 348 352 352 346 348 342 339 339 337 336 301 293 303 246 190 212 195 189 183 176 158 148 149 148 147 134 137 185 181 185 172
83 124 80 105 80 55 234 25 339 279 19 351 327 307 334 344 352 351 353 352 349 347 345 336 337 339 333 331 321 305 323 232 185 189 187 186 184 183 155 150 161 161 166 158 167 187 187 184 172
77 118 112 68 75 44 295 309 244 127 321 278 309 323 333 330 342 346 357 351 347 340 343 329 336 339 335 330 322 314 314 230 160 170 191 182 187 182 162 155 164 166 175 176 181 182 175 181 176
113 192 174 44 0 52 290 181 217 70 230 285 297 308 318 328 338 358 348 347 337 349 336 332 332 338 340 330 325 314 304 268 175 154 194 183 188 175 175 163 162 172 185 175 178 175 181 173 183
84 253 229 61 352 202 307 45 186 189 249 286 296 301 308 322 325 346 345 346 347 343 346 332 330 333 336 326 318 310 305 315 186 180 188 187 182 171 184 185 182 187 179 175 168 178 180 197 196
96 304 306 202 82 308 316 302 166 202 235 273 279 286 298 306 309 336 348 346 345 341 341 341 342 342 337 328 322 317 349 335 319 177 192 186 165 189 173 184 185 189 181 179 177 181 192 191 201
353 297 259 288 46 316 290 269 293 262 242 262 271 273 283 302 323 326 332 347 348 349 349 346 350 349 344 337 339 338 346 355 358 51 23 168 182 182 208 191 185 179 178 179 180 183 191 200 202
336 286 297 334 33 314 300 300 317 319 252 253 260 264 272 294 314 300 330 339 345 354 352 355 351 351 355 344 352 355 348 334 0 24 29 23 220 203 199 191 179 181 179 186 183 177 188 192 178
9 313 324 287 286 294 317 310 360 339 276 272 282 276 276 284 303 315 339 340 357 347 351 351 354 347 353 358 334 311 306 299 327 9 27 29 13 231 196 197 193 195 189 189 174 173 179 204 190
56 359 337 300 317 267 313 196 43 120 280 280 271 279 278 281 306 324 338 344 345 350 345 346 347 342 345 354 333 328 312 301 352 3 5 11 8 356 211 199 196 193 189 190 187 195 190 188 189
12 22 314 293 310 358 351 329 36 320 316 261 358 2 353 297 293 304 322 340 348 344 338 342 347 346 348 350 350 12 359 342 360 344 327 4 8 8 346 206 194 192 193 208 191 194 198 171 172
60 324 311 302 297 286 23 292 86 300 310 0 1 4 8 353 310 307 321 334 338 337 338 340 349 350 355 346 354 1 356 329 343 335 329 13 4 15 360 320 201 195 201 196 185 180 178 194 174
34 222 248 284 272 93 21 345 256 331 316 318 333 357 354 348 321 298 315 323 334 340 348 345 352 357 353 358 353 351 348 353 1 4 344 6 347 12 359 350 248 190 199 192 193 190 193 206 224
86 291 281 253 51 356 134 264 280 281 274 272 310 326 338 330 321 313 315 331 337 342 347 354 355 355 354 353 350 347 350 357 359 349 345 345 358 10 352 352 336 69 209 196 186 197 206 216 217
79 350 166 291 294 315 177 242 6 257 288 278 273 281 293 334 339 310 320 325 338 339 340 344 355 353 353 348 347 341 352 348 343 343 320 324 355 337 349 326 320 48 11 201 188 181 201 212 206
142 247 103 106 25 247 298 256 267 268 276 240 267 264 309 347 18 329 321 322 330 338 337 337 343 345 354 356 337 341 352 347 350 339 317 330 340 336 330 318 337 28 289 294 177 195 192 208 208
13 119 205 171 280 330 266 281 273 234 258 277 266 305 323 307 303 162 169 135 332 330 333 329 339 342 349 350 342 344 357 353 342 328 321 336 333 334 316 316 322 342 290 245 274 166 188 197 184
147 156 101 17 310 232 303 242 203 217 216 275 307 307 310 306 301 279 184 154 152 292 324 336 338 341 346 356 351 350 354 351 342 331 330 336 318 327 317 308 302 291 328 246 219 142 119 111 113
339 138 199 229 199 42 1 272 185 223 240 264 288 306 314 298 296 280 202 166 159 273 315 337 348 338 347 344 353 5 1 353 346 338 331 338 336 335 316 311 304 326 10 72 118 103 85 121 105